JES380 SACO-SABE

Flight info

Callsign JES380
Flight time 0h 53m
Altitude 35000
Route UTRAX1C UTRAX UW24 SNT SNT8Q
Aircraft A320/M-SDE3FGHIRWY/LB1

Departure

Time 2026-05-06 22:33
Airport Ingeniero Aeronáutico Ambrosio L.V. Taravella International Airport (SACO)

Arrival

Time 2026-05-06 23:27
Airport Aeroparque Jorge Newbery (SABE)
Time Latitude Longitude Altitude Speed Heading
2026-05-06 22:14 -31.31612 -64.21170 1616 ft 0 kts 268°
2026-05-06 22:23 -31.31606 -64.21154 1622 ft 2 kts 249°
2026-05-06 22:24 -31.31603 -64.21135 1616 ft 2 kts 272°
2026-05-06 22:24 -31.31604 -64.21116 1621 ft 2 kts 256°
2026-05-06 22:24 -31.31596 -64.21102 1619 ft 1 kts 186°
2026-05-06 22:24 -31.31594 -64.21101 1620 ft 0 kts 182°
2026-05-06 22:27 -31.31600 -64.21101 1618 ft 2 kts 182°
2026-05-06 22:27 -31.31618 -64.21102 1620 ft 3 kts 180°
2026-05-06 22:27 -31.31651 -64.21102 1618 ft 6 kts 180°
2026-05-06 22:28 -31.31697 -64.21102 1615 ft 7 kts 180°
2026-05-06 22:28 -31.31742 -64.21074 1617 ft 8 kts 137°
2026-05-06 22:28 -31.31791 -64.21031 1616 ft 9 kts 153°
2026-05-06 22:28 -31.31858 -64.21029 1618 ft 10 kts 177°
2026-05-06 22:29 -31.31935 -64.21027 1620 ft 12 kts 179°
2026-05-06 22:29 -31.32019 -64.21027 1616 ft 13 kts 180°
2026-05-06 22:29 -31.32113 -64.21025 1620 ft 14 kts 179°
2026-05-06 22:29 -31.32216 -64.21022 1617 ft 16 kts 179°
2026-05-06 22:30 -31.32327 -64.21020 1619 ft 17 kts 179°
2026-05-06 22:30 -31.32401 -64.21005 1618 ft 8 kts 146°
2026-05-06 22:30 -31.32405 -64.21001 1618 ft 0 kts 139°
2026-05-06 22:31 -31.32408 -64.20998 1619 ft 2 kts 139°
2026-05-06 22:31 -31.32424 -64.20978 1615 ft 5 kts 127°
2026-05-06 22:31 -31.32438 -64.20926 1621 ft 9 kts 91°
2026-05-06 22:31 -31.32401 -64.20846 1612 ft 14 kts 44°
2026-05-06 22:32 -31.32338 -64.20813 1617 ft 10 kts
2026-05-06 22:32 -31.32262 -64.20816 1614 ft 11 kts 358°
2026-05-06 22:32 -31.32118 -64.20817 1615 ft 45 kts 359°
2026-05-06 22:32 -31.31589 -64.20826 1615 ft 104 kts 359°
2026-05-06 22:33 -31.30718 -64.20839 1618 ft 148 kts 359°
2026-05-06 22:33 -31.29607 -64.20863 1924 ft 161 kts 360°
2026-05-06 22:33 -31.28487 -64.20868 2472 ft 161 kts
2026-05-06 22:33 -31.27397 -64.20602 3043 ft 160 kts 20°
2026-05-06 22:34 -31.26376 -64.20024 3464 ft 171 kts 31°
2026-05-06 22:34 -31.25415 -64.19056 3707 ft 192 kts 48°
2026-05-06 22:34 -31.24676 -64.17723 4164 ft 200 kts 63°
2026-05-06 22:34 -31.24268 -64.16155 4675 ft 206 kts 79°
2026-05-06 22:35 -31.24198 -64.14463 5149 ft 210 kts 88°
2026-05-06 22:35 -31.24176 -64.12738 5628 ft 214 kts 89°
2026-05-06 22:35 -31.24442 -64.11021 6085 ft 219 kts 113°
2026-05-06 22:35 -31.25208 -64.09401 6245 ft 239 kts 121°
2026-05-06 22:36 -31.26101 -64.07658 6538 ft 257 kts 122°
2026-05-06 22:36 -31.27028 -64.05844 7135 ft 262 kts 121°
2026-05-06 22:36 -31.28058 -64.04066 7761 ft 267 kts 133°
2026-05-06 22:36 -31.29424 -64.02467 8038 ft 289 kts 139°
2026-05-06 22:37 -31.30925 -64.00807 8486 ft 302 kts 139°
2026-05-06 22:37 -31.32468 -63.99098 9119 ft 308 kts 139°
2026-05-06 22:37 -31.34033 -63.97359 9755 ft 313 kts 139°
2026-05-06 22:37 -31.35602 -63.95605 10268 ft 322 kts 139°
2026-05-06 22:38 -31.37284 -63.93728 10402 ft 345 kts 139°
2026-05-06 22:38 -31.39064 -63.91744 10711 ft 358 kts 139°
2026-05-06 22:38 -31.40882 -63.89711 11241 ft 364 kts 139°
2026-05-06 22:38 -31.42717 -63.87654 11808 ft 368 kts 139°
2026-05-06 22:39 -31.44572 -63.85565 12399 ft 372 kts 139°
2026-05-06 22:39 -31.45811 -63.84169 12792 ft 374 kts 139°
2026-05-06 22:39 -31.47699 -63.82045 13383 ft 378 kts 140°
2026-05-06 22:39 -31.49609 -63.79903 13909 ft 382 kts 140°
2026-05-06 22:40 -31.51539 -63.77743 14422 ft 386 kts 140°
2026-05-06 22:40 -31.53490 -63.75559 14940 ft 389 kts 140°
2026-05-06 22:40 -31.55456 -63.73354 15451 ft 393 kts 140°
2026-05-06 22:40 -31.57443 -63.71129 15985 ft 397 kts 140°
2026-05-06 22:41 -31.61470 -63.66610 17046 ft 404 kts 140°
2026-05-06 22:41 -31.63509 -63.64324 17584 ft 407 kts 141°
2026-05-06 22:41 -31.65573 -63.62027 18092 ft 411 kts 141°
2026-05-06 22:42 -31.67659 -63.59719 18563 ft 414 kts 141°
2026-05-06 22:42 -31.69769 -63.57392 19056 ft 418 kts 141°
2026-05-06 22:42 -31.71896 -63.55047 19544 ft 421 kts 141°
2026-05-06 22:42 -31.74039 -63.52681 20029 ft 425 kts 141°
2026-05-06 22:43 -31.76199 -63.50285 20500 ft 429 kts 141°
2026-05-06 22:43 -31.78373 -63.47867 20957 ft 432 kts 141°
2026-05-06 22:43 -31.80538 -63.45464 21403 ft 435 kts 141°
2026-05-06 22:43 -31.82744 -63.43013 21838 ft 439 kts 141°
2026-05-06 22:44 -31.84974 -63.40531 22274 ft 442 kts 141°
2026-05-06 22:44 -31.87217 -63.38032 22715 ft 446 kts 141°
2026-05-06 22:44 -31.89369 -63.35370 23141 ft 453 kts 133°
2026-05-06 22:44 -31.91341 -63.32454 23501 ft 457 kts 132°
2026-05-06 22:45 -31.93324 -63.29510 23870 ft 460 kts 132°
2026-05-06 22:45 -31.95319 -63.26547 24220 ft 463 kts 132°
2026-05-06 22:45 -31.97326 -63.23564 24571 ft 467 kts 133°
2026-05-06 22:45 -31.99351 -63.20554 24920 ft 470 kts 133°
2026-05-06 22:46 -32.01382 -63.17535 25281 ft 473 kts 133°
2026-05-06 22:46 -32.03435 -63.14475 25629 ft 476 kts 133°
2026-05-06 22:46 -32.05492 -63.11411 25972 ft 479 kts 133°
2026-05-06 22:46 -32.07539 -63.08360 26313 ft 481 kts 133°
2026-05-06 22:47 -32.09624 -63.05252 26657 ft 484 kts 133°
2026-05-06 22:47 -32.11717 -63.02127 26982 ft 487 kts 133°
2026-05-06 22:47 -32.13825 -62.98976 27314 ft 490 kts 133°
2026-05-06 22:47 -32.15942 -62.95810 27650 ft 493 kts 133°
2026-05-06 22:48 -32.18069 -62.92626 27989 ft 496 kts 133°
2026-05-06 22:48 -32.20212 -62.89414 28303 ft 499 kts 133°
2026-05-06 22:48 -32.22368 -62.86179 28631 ft 502 kts 134°
2026-05-06 22:48 -32.24536 -62.82925 28953 ft 505 kts 134°
2026-05-06 22:49 -32.26711 -62.79654 29292 ft 508 kts 134°
2026-05-06 22:49 -32.28903 -62.76355 29615 ft 511 kts 134°
2026-05-06 22:49 -32.31102 -62.73040 29895 ft 514 kts 134°
2026-05-06 22:49 -32.33318 -62.69696 30155 ft 517 kts 134°
2026-05-06 22:50 -32.35543 -62.66340 30429 ft 520 kts 134°
2026-05-06 22:50 -32.37771 -62.62979 30805 ft 520 kts 134°
2026-05-06 22:50 -32.40001 -62.59613 31163 ft 520 kts 134°
2026-05-06 22:50 -32.42233 -62.56240 31519 ft 520 kts 134°
2026-05-06 22:51 -32.44433 -62.52912 31875 ft 521 kts 134°
2026-05-06 22:51 -32.46668 -62.49530 32246 ft 521 kts 134°
2026-05-06 22:51 -32.48902 -62.46144 32607 ft 522 kts 134°
2026-05-06 22:51 -32.51134 -62.42754 32990 ft 522 kts 134°
2026-05-06 22:52 -32.53365 -62.39362 33376 ft 522 kts 134°
2026-05-06 22:52 -32.55592 -62.35975 33744 ft 522 kts 134°
2026-05-06 22:52 -32.57825 -62.32576 34066 ft 522 kts 134°
2026-05-06 22:52 -32.60053 -62.29180 34385 ft 521 kts 134°
2026-05-06 22:53 -32.62278 -62.25790 34609 ft 522 kts 134°
2026-05-06 22:53 -32.66736 -62.18990 34665 ft 520 kts 134°
2026-05-06 22:54 -32.71109 -62.12132 34664 ft 521 kts 132°
2026-05-06 22:54 -32.75215 -62.05082 34664 ft 522 kts 130°
2026-05-06 22:55 -32.79249 -61.97928 34667 ft 520 kts 130°
2026-05-06 22:55 -32.83327 -61.90832 34667 ft 519 kts 131°
2026-05-06 22:56 -32.87454 -61.83791 34674 ft 519 kts 131°
2026-05-06 22:56 -32.91582 -61.76740 34680 ft 518 kts 131°
2026-05-06 22:57 -32.95677 -61.69664 34695 ft 518 kts 130°
2026-05-06 22:57 -32.99718 -61.62640 34685 ft 517 kts 130°
2026-05-06 22:58 -33.03786 -61.55589 34685 ft 516 kts 130°
2026-05-06 22:58 -33.07861 -61.48547 34687 ft 515 kts 130°
2026-05-06 22:59 -33.11909 -61.41510 34691 ft 514 kts 130°
2026-05-06 22:59 -33.15936 -61.34476 34688 ft 513 kts 130°
2026-05-06 23:00 -33.19955 -61.27453 34699 ft 512 kts 130°
2026-05-06 23:00 -33.23966 -61.20442 34698 ft 511 kts 130°
2026-05-06 23:01 -33.27960 -61.13438 34686 ft 510 kts 130°
2026-05-06 23:01 -33.31939 -61.06440 34695 ft 508 kts 130°
2026-05-06 23:02 -33.35896 -60.99443 34689 ft 507 kts 130°
2026-05-06 23:02 -33.39806 -60.92495 34672 ft 503 kts 130°
2026-05-06 23:02 -33.41729 -60.89058 34153 ft 494 kts 129°
2026-05-06 23:03 -33.43611 -60.85636 33827 ft 490 kts 126°
2026-05-06 23:03 -33.45245 -60.82055 33467 ft 488 kts 123°
2026-05-06 23:03 -33.46820 -60.78481 33058 ft 483 kts 122°
2026-05-06 23:03 -33.48368 -60.74925 32660 ft 479 kts 122°
2026-05-06 23:04 -33.49897 -60.71393 32256 ft 475 kts 122°
2026-05-06 23:04 -33.51409 -60.67891 31855 ft 471 kts 122°
2026-05-06 23:04 -33.52910 -60.64420 31460 ft 467 kts 121°
2026-05-06 23:04 -33.54402 -60.60975 31068 ft 463 kts 121°
2026-05-06 23:05 -33.55883 -60.57560 30680 ft 460 kts 121°
2026-05-06 23:05 -33.57348 -60.54172 30310 ft 456 kts 121°
2026-05-06 23:05 -33.58802 -60.50805 29945 ft 453 kts 121°
2026-05-06 23:05 -33.60245 -60.47466 29559 ft 449 kts 121°
2026-05-06 23:06 -33.61661 -60.44196 29149 ft 446 kts 121°
2026-05-06 23:06 -33.63088 -60.40898 28744 ft 442 kts 121°
2026-05-06 23:06 -33.64500 -60.37632 28341 ft 439 kts 121°
2026-05-06 23:06 -33.65899 -60.34386 27959 ft 436 kts 121°
2026-05-06 23:07 -33.67289 -60.31157 27584 ft 433 kts 121°
2026-05-06 23:07 -33.68667 -60.27951 27207 ft 430 kts 121°
2026-05-06 23:07 -33.70035 -60.24769 26832 ft 427 kts 121°
2026-05-06 23:07 -33.71389 -60.21612 26453 ft 424 kts 121°
2026-05-06 23:08 -33.72734 -60.18475 26081 ft 421 kts 121°
2026-05-06 23:08 -33.74067 -60.15364 25724 ft 418 kts 121°
2026-05-06 23:08 -33.75392 -60.12267 25361 ft 415 kts 120°
2026-05-06 23:08 -33.76703 -60.09193 24989 ft 412 kts 120°
2026-05-06 23:09 -33.78004 -60.06141 24627 ft 409 kts 120°
2026-05-06 23:09 -33.79303 -60.03103 24260 ft 406 kts 120°
2026-05-06 23:09 -33.80589 -60.00090 23903 ft 404 kts 120°
2026-05-06 23:09 -33.81434 -59.98108 23671 ft 402 kts 120°
2026-05-06 23:10 -33.82275 -59.96130 23430 ft 400 kts 120°
2026-05-06 23:10 -33.84369 -59.91208 22761 ft 396 kts 120°
2026-05-06 23:10 -33.85616 -59.88273 22359 ft 393 kts 120°
2026-05-06 23:10 -33.86854 -59.85358 21966 ft 390 kts 120°
2026-05-06 23:11 -33.88086 -59.82456 21571 ft 388 kts 120°
2026-05-06 23:11 -33.89307 -59.79576 21184 ft 385 kts 120°
2026-05-06 23:11 -33.90521 -59.76715 20796 ft 382 kts 119°
2026-05-06 23:11 -33.91724 -59.73873 20412 ft 380 kts 119°
2026-05-06 23:12 -33.92920 -59.71047 20034 ft 378 kts 119°
2026-05-06 23:12 -33.94108 -59.68237 19664 ft 375 kts 119°
2026-05-06 23:12 -33.95285 -59.65447 19293 ft 373 kts 119°
2026-05-06 23:12 -33.96455 -59.62669 18945 ft 371 kts 119°
2026-05-06 23:13 -33.97671 -59.59939 18595 ft 368 kts 121°
2026-05-06 23:13 -33.98940 -59.57277 18254 ft 366 kts 122°
2026-05-06 23:13 -34.00239 -59.54645 17901 ft 364 kts 123°
2026-05-06 23:13 -34.01540 -59.52038 17519 ft 362 kts 123°
2026-05-06 23:14 -34.02833 -59.49440 17146 ft 360 kts 122°
2026-05-06 23:14 -34.04112 -59.46850 16767 ft 358 kts 122°
2026-05-06 23:14 -34.05374 -59.44269 16414 ft 356 kts 122°
2026-05-06 23:14 -34.06592 -59.41761 16068 ft 354 kts 122°
2026-05-06 23:15 -34.07835 -59.39197 15720 ft 352 kts 122°
2026-05-06 23:15 -34.08520 -59.37779 15535 ft 351 kts 121°
2026-05-06 23:15 -34.09743 -59.35240 15195 ft 349 kts 121°
2026-05-06 23:15 -34.10958 -59.32713 14860 ft 348 kts 121°
2026-05-06 23:16 -34.12169 -59.30196 14554 ft 345 kts 121°
2026-05-06 23:16 -34.13371 -59.27697 14235 ft 343 kts 121°
2026-05-06 23:16 -34.14567 -59.25208 13935 ft 341 kts 121°
2026-05-06 23:16 -34.15755 -59.22736 13622 ft 340 kts 121°
2026-05-06 23:17 -34.16936 -59.20278 13303 ft 338 kts 121°
2026-05-06 23:17 -34.18113 -59.17830 12972 ft 335 kts 121°
2026-05-06 23:17 -34.19279 -59.15402 12653 ft 333 kts 121°
2026-05-06 23:17 -34.20438 -59.12988 12322 ft 331 kts 121°
2026-05-06 23:18 -34.21589 -59.10592 12003 ft 329 kts 121°
2026-05-06 23:18 -34.22729 -59.08216 11731 ft 325 kts 121°
2026-05-06 23:18 -34.23856 -59.05862 11425 ft 322 kts 120°
2026-05-06 23:18 -34.24975 -59.03527 11130 ft 320 kts 120°
2026-05-06 23:19 -34.26087 -59.01203 10824 ft 318 kts 120°
2026-05-06 23:19 -34.27190 -58.98896 10542 ft 316 kts 120°
2026-05-06 23:19 -34.28286 -58.96601 10177 ft 316 kts 120°
2026-05-06 23:19 -34.29379 -58.94310 9927 ft 312 kts 120°
2026-05-06 23:20 -34.30461 -58.92039 9644 ft 311 kts 120°
2026-05-06 23:20 -34.31535 -58.89784 9323 ft 309 kts 120°
2026-05-06 23:20 -34.32607 -58.87533 8980 ft 308 kts 120°
2026-05-06 23:20 -34.33676 -58.85287 8636 ft 308 kts 120°
2026-05-06 23:21 -34.34744 -58.83045 8288 ft 307 kts 120°
2026-05-06 23:21 -34.35811 -58.80802 7956 ft 307 kts 120°
2026-05-06 23:21 -34.36874 -58.78566 7633 ft 306 kts 120°
2026-05-06 23:21 -34.37928 -58.76347 7195 ft 310 kts 120°
2026-05-06 23:22 -34.39005 -58.74077 6732 ft 309 kts 120°
2026-05-06 23:22 -34.40070 -58.71833 6259 ft 305 kts 120°
2026-05-06 23:22 -34.41123 -58.69617 5780 ft 302 kts 120°
2026-05-06 23:22 -34.42162 -58.67426 5289 ft 297 kts 119°
2026-05-06 23:23 -34.43167 -58.65301 5069 ft 282 kts 119°
2026-05-06 23:23 -34.44118 -58.63289 4708 ft 275 kts 118°
2026-05-06 23:23 -34.45009 -58.61210 3996 ft 281 kts 117°
2026-05-06 23:23 -34.46049 -58.59168 3271 ft 288 kts 122°
2026-05-06 23:24 -34.47194 -58.57157 2644 ft 289 kts 123°
2026-05-06 23:24 -34.48318 -58.55179 2241 ft 280 kts 122°
2026-05-06 23:24 -34.49386 -58.53275 1884 ft 263 kts 122°
2026-05-06 23:24 -34.50368 -58.51521 1553 ft 239 kts 121°
2026-05-06 23:25 -34.51262 -58.49925 1268 ft 219 kts 121°
2026-05-06 23:25 -34.52093 -58.48438 1016 ft 203 kts 121°
2026-05-06 23:25 -34.52846 -58.47092 782 ft 182 kts 121°
2026-05-06 23:25 -34.53504 -58.45917 652 ft 159 kts 121°
2026-05-06 23:26 -34.54097 -58.44853 490 ft 148 kts 122°
2026-05-06 23:26 -34.54660 -58.43838 347 ft 143 kts 122°
2026-05-06 23:26 -34.55210 -58.42846 112 ft 141 kts 123°
2026-05-06 23:26 -34.55731 -58.41916 27 ft 106 kts 125°
2026-05-06 23:27 -34.56022 -58.41393 26 ft 53 kts 123°
2026-05-06 23:27 -34.56162 -58.41132 28 ft 15 kts 123°
2026-05-06 23:27 -34.56183 -58.41029 28 ft 11 kts 59°
2026-05-06 23:27 -34.56142 -58.40957 27 ft 7 kts 22°
2026-05-06 23:28 -34.56113 -58.40992 27 ft 7 kts 306°
2026-05-06 23:28 -34.56078 -58.41046 27 ft 9 kts 307°
2026-05-06 23:28 -34.56052 -58.41084 27 ft 8 kts 307°
2026-05-06 23:28 -34.55999 -58.41174 27 ft 9 kts 308°
2026-05-06 23:29 -34.55971 -58.41219 27 ft 11 kts 307°
2026-05-06 23:29 -34.55930 -58.41288 27 ft 7 kts 306°
2026-05-06 23:29 -34.55918 -58.41300 27 ft 7 kts 330°